Year,Month,Day,Hour,Minute,Value (Times are PST for temperature in C)
2014,08,15,00,00,18.10
2014,08,15,00,01,18.20
2014,08,15,00,02,18.20
2014,08,15,00,03,18.20
2014,08,15,00,04,18.20
2014,08,15,00,05,18.20
2014,08,15,00,06,18.30
2014,08,15,00,07,18.30
2014,08,15,00,08,18.30
2014,08,15,00,09,18.30
2014,08,15,00,10,18.30
2014,08,15,00,11,18.30
2014,08,15,00,12,18.40
2014,08,15,00,13,18.40
2014,08,15,00,14,18.40
2014,08,15,00,15,18.40
2014,08,15,00,16,18.40
2014,08,15,00,17,18.40
2014,08,15,00,18,18.40
2014,08,15,00,19,18.40
2014,08,15,00,20,18.50
2014,08,15,00,21,18.50
2014,08,15,00,22,18.40
2014,08,15,00,23,18.40
2014,08,15,00,24,18.40
2014,08,15,00,25,18.40
2014,08,15,00,26,18.40
2014,08,15,00,27,18.40
2014,08,15,00,28,18.40
2014,08,15,00,29,18.40
2014,08,15,00,30,18.40
2014,08,15,00,31,18.40
2014,08,15,00,32,18.30
2014,08,15,00,33,18.30
2014,08,15,00,34,18.30
2014,08,15,00,35,18.30
2014,08,15,00,36,18.30
2014,08,15,00,37,18.30
2014,08,15,00,38,18.30
2014,08,15,00,39,18.30
2014,08,15,00,40,18.30
2014,08,15,00,41,18.30
2014,08,15,00,42,18.30
2014,08,15,00,43,18.30
2014,08,15,00,44,18.30
2014,08,15,00,45,18.30
2014,08,15,00,46,18.20
2014,08,15,00,47,18.20
2014,08,15,00,48,18.20
2014,08,15,00,49,18.20
2014,08,15,00,50,18.20
2014,08,15,00,51,18.20
2014,08,15,00,52,18.30
2014,08,15,00,53,18.30
2014,08,15,00,54,18.30
2014,08,15,00,55,18.30
2014,08,15,00,56,18.30
2014,08,15,00,57,18.30
2014,08,15,00,58,18.30
2014,08,15,00,59,18.30
2014,08,15,01,00,18.30
2014,08,15,01,01,18.30
2014,08,15,01,02,18.30
2014,08,15,01,03,18.30
2014,08,15,01,04,18.30
2014,08,15,01,05,18.30
2014,08,15,01,06,18.30
2014,08,15,01,07,18.30
2014,08,15,01,08,18.30
2014,08,15,01,09,18.20
2014,08,15,01,10,18.20
2014,08,15,01,11,18.20
2014,08,15,01,12,18.20
2014,08,15,01,13,18.20
2014,08,15,01,14,18.20
2014,08,15,01,15,18.20
2014,08,15,01,16,18.20
2014,08,15,01,17,18.20
2014,08,15,01,18,18.20
2014,08,15,01,19,18.10
2014,08,15,01,20,18.10
2014,08,15,01,21,18.10
2014,08,15,01,22,18.00
2014,08,15,01,23,18.00
2014,08,15,01,24,17.90
2014,08,15,01,25,17.90
2014,08,15,01,26,17.90
2014,08,15,01,27,17.90
2014,08,15,01,28,17.80
2014,08,15,01,29,17.80
2014,08,15,01,30,17.80
2014,08,15,01,31,17.80
2014,08,15,01,32,17.80
2014,08,15,01,33,17.80
2014,08,15,01,34,17.80
2014,08,15,01,35,17.80
2014,08,15,01,36,17.80
2014,08,15,01,37,17.80
2014,08,15,01,38,17.80
2014,08,15,01,39,17.80
2014,08,15,01,40,17.80
2014,08,15,01,41,17.80
2014,08,15,01,42,17.80
2014,08,15,01,43,17.90
2014,08,15,01,44,17.90
2014,08,15,01,45,17.90
2014,08,15,01,46,17.90
2014,08,15,01,47,17.90
2014,08,15,01,48,18.00
2014,08,15,01,49,18.00
2014,08,15,01,50,18.00
2014,08,15,01,51,18.00
2014,08,15,01,52,18.00
2014,08,15,01,53,18.00
2014,08,15,01,54,18.00
2014,08,15,01,55,18.00
2014,08,15,01,56,18.00
2014,08,15,01,57,18.00
2014,08,15,01,58,18.00
2014,08,15,01,59,18.00
2014,08,15,02,00,18.00
2014,08,15,02,01,18.10
2014,08,15,02,02,18.10
2014,08,15,02,03,18.10
2014,08,15,02,04,18.10
2014,08,15,02,05,18.10
2014,08,15,02,06,18.10
2014,08,15,02,07,18.10
2014,08,15,02,08,18.10
2014,08,15,02,09,18.10
2014,08,15,02,10,18.10
2014,08,15,02,11,18.10
2014,08,15,02,12,18.10
2014,08,15,02,13,18.10
2014,08,15,02,14,18.20
2014,08,15,02,15,18.20
2014,08,15,02,16,18.20
2014,08,15,02,17,18.10
2014,08,15,02,18,18.10
2014,08,15,02,19,18.10
2014,08,15,02,20,18.10
2014,08,15,02,21,18.10
2014,08,15,02,22,18.10
2014,08,15,02,23,18.10
2014,08,15,02,24,18.10
2014,08,15,02,25,18.10
2014,08,15,02,26,18.10
2014,08,15,02,27,18.10
2014,08,15,02,28,18.10
2014,08,15,02,29,18.10
2014,08,15,02,30,18.10
2014,08,15,02,31,18.10
2014,08,15,02,32,18.10
2014,08,15,02,33,18.10
2014,08,15,02,34,18.10
2014,08,15,02,35,18.10
2014,08,15,02,36,18.10
2014,08,15,02,37,18.20
2014,08,15,02,38,18.20
2014,08,15,02,39,18.20
2014,08,15,02,40,18.20
2014,08,15,02,41,18.10
2014,08,15,02,42,18.10
2014,08,15,02,43,18.10
2014,08,15,02,44,18.10
2014,08,15,02,45,18.10
2014,08,15,02,46,18.00
2014,08,15,02,47,18.00
2014,08,15,02,48,17.90
2014,08,15,02,49,17.90
2014,08,15,02,50,17.90
2014,08,15,02,51,17.80
2014,08,15,02,52,17.80
2014,08,15,02,53,17.80
2014,08,15,02,54,17.80
2014,08,15,02,55,17.80
2014,08,15,02,56,17.80
2014,08,15,02,57,17.80
2014,08,15,02,58,17.70
2014,08,15,02,59,17.70
2014,08,15,03,00,17.70
2014,08,15,03,01,17.70
2014,08,15,03,02,17.70
2014,08,15,03,03,17.80
2014,08,15,03,04,17.80
2014,08,15,03,05,17.80
2014,08,15,03,06,17.80
2014,08,15,03,07,17.80
2014,08,15,03,08,17.80
2014,08,15,03,09,17.80
2014,08,15,03,10,17.80
2014,08,15,03,11,17.80
2014,08,15,03,12,17.80
2014,08,15,03,13,17.80
2014,08,15,03,14,17.80
2014,08,15,03,15,17.80
2014,08,15,03,16,17.80
2014,08,15,03,17,17.80
2014,08,15,03,18,17.80
2014,08,15,03,19,17.80
2014,08,15,03,20,17.80
2014,08,15,03,21,17.80
2014,08,15,03,22,17.80
2014,08,15,03,23,17.80
2014,08,15,03,24,17.80
2014,08,15,03,25,17.80
2014,08,15,03,26,17.80
2014,08,15,03,27,17.80
2014,08,15,03,28,17.70
2014,08,15,03,29,17.70
2014,08,15,03,30,17.70
2014,08,15,03,31,17.70
2014,08,15,03,32,17.70
2014,08,15,03,33,17.70
2014,08,15,03,34,17.70
2014,08,15,03,35,17.70
2014,08,15,03,36,17.70
2014,08,15,03,37,17.70
2014,08,15,03,38,17.60
2014,08,15,03,39,17.60
2014,08,15,03,40,17.60
2014,08,15,03,41,17.60
2014,08,15,03,42,17.60
2014,08,15,03,43,17.60
2014,08,15,03,44,17.60
2014,08,15,03,45,17.60
2014,08,15,03,46,17.50
2014,08,15,03,47,17.50
2014,08,15,03,48,17.50
2014,08,15,03,49,17.50
2014,08,15,03,50,17.50
2014,08,15,03,51,17.50
2014,08,15,03,52,17.50
2014,08,15,03,53,17.40
2014,08,15,03,54,17.40
2014,08,15,03,55,17.40
2014,08,15,03,56,17.40
2014,08,15,03,57,17.40
2014,08,15,03,58,17.40
2014,08,15,03,59,17.40
2014,08,15,04,00,17.40
2014,08,15,04,01,17.40
2014,08,15,04,02,17.30
2014,08,15,04,03,17.30
2014,08,15,04,04,17.30
2014,08,15,04,05,17.30
2014,08,15,04,06,17.30
2014,08,15,04,07,17.30
2014,08,15,04,08,17.30
2014,08,15,04,09,17.30
2014,08,15,04,10,17.30
2014,08,15,04,11,17.30
2014,08,15,04,12,17.30
2014,08,15,04,13,17.30
2014,08,15,04,14,17.30
2014,08,15,04,15,17.30
2014,08,15,04,16,17.30
2014,08,15,04,17,17.30
2014,08,15,04,18,17.30
2014,08,15,04,19,17.30
2014,08,15,04,20,17.30
2014,08,15,04,21,17.30
2014,08,15,04,22,17.40
2014,08,15,04,23,17.40
2014,08,15,04,24,17.40
2014,08,15,04,25,17.40
2014,08,15,04,26,17.40
2014,08,15,04,27,17.40
2014,08,15,04,28,17.40
2014,08,15,04,29,17.40
2014,08,15,04,30,17.30
2014,08,15,04,31,17.30
2014,08,15,04,32,17.30
2014,08,15,04,33,17.30
2014,08,15,04,34,17.30
2014,08,15,04,35,17.30
2014,08,15,04,36,17.30
2014,08,15,04,37,17.30
2014,08,15,04,38,17.20
2014,08,15,04,39,17.10
2014,08,15,04,40,16.90
2014,08,15,04,41,16.80
2014,08,15,04,42,16.70
2014,08,15,04,43,16.60
2014,08,15,04,44,16.40
2014,08,15,04,45,16.30
2014,08,15,04,46,16.20
2014,08,15,04,47,16.10
2014,08,15,04,48,16.10
2014,08,15,04,49,16.00
2014,08,15,04,50,16.00
2014,08,15,04,51,15.90
2014,08,15,04,52,15.90
2014,08,15,04,53,15.90
2014,08,15,04,54,15.80
2014,08,15,04,55,15.80
2014,08,15,04,56,15.80
2014,08,15,04,57,15.80
2014,08,15,04,58,15.80
2014,08,15,04,59,15.80
2014,08,15,05,00,15.80
2014,08,15,05,01,15.80
2014,08,15,05,02,15.80
2014,08,15,05,03,15.80
2014,08,15,05,04,15.80
2014,08,15,05,05,15.80
2014,08,15,05,06,15.90
2014,08,15,05,07,15.90
2014,08,15,05,08,15.90
2014,08,15,05,09,15.90
2014,08,15,05,10,15.90
2014,08,15,05,11,15.90
2014,08,15,05,12,15.90
2014,08,15,05,13,15.90
2014,08,15,05,14,15.90
2014,08,15,05,15,15.90
2014,08,15,05,16,15.90
2014,08,15,05,17,15.90
2014,08,15,05,18,15.90
2014,08,15,05,19,15.90
2014,08,15,05,20,15.90
2014,08,15,05,21,15.90
2014,08,15,05,22,15.90
2014,08,15,05,23,15.90
2014,08,15,05,24,15.90
2014,08,15,05,25,15.90
2014,08,15,05,26,15.90
2014,08,15,05,27,15.90
2014,08,15,05,28,15.90
2014,08,15,05,29,15.90
2014,08,15,05,30,15.80
2014,08,15,05,31,15.80
2014,08,15,05,32,15.80
2014,08,15,05,33,15.80
2014,08,15,05,34,15.80
2014,08,15,05,35,15.80
2014,08,15,05,36,15.80
2014,08,15,05,37,15.80
2014,08,15,05,38,15.80
2014,08,15,05,39,15.80
2014,08,15,05,40,15.80
2014,08,15,05,41,15.80
2014,08,15,05,42,15.80
2014,08,15,05,43,15.80
2014,08,15,05,44,15.90
2014,08,15,05,45,15.90
2014,08,15,05,46,15.90
2014,08,15,05,47,15.90
2014,08,15,05,48,15.90
2014,08,15,05,49,15.90
2014,08,15,05,50,15.90
2014,08,15,05,51,15.90
2014,08,15,05,52,15.90
2014,08,15,05,53,15.90
2014,08,15,05,54,15.90
2014,08,15,05,55,15.90
2014,08,15,05,56,15.90
2014,08,15,05,57,15.80
2014,08,15,05,58,15.80
2014,08,15,05,59,15.80
2014,08,15,06,00,15.80
2014,08,15,06,01,15.80
2014,08,15,06,02,15.80
2014,08,15,06,03,15.80
2014,08,15,06,04,15.80
2014,08,15,06,05,15.80
2014,08,15,06,06,15.80
2014,08,15,06,07,15.70
2014,08,15,06,08,15.70
2014,08,15,06,09,15.70
2014,08,15,06,10,15.70
2014,08,15,06,11,15.70
2014,08,15,06,12,15.60
2014,08,15,06,13,15.60
2014,08,15,06,14,15.60
2014,08,15,06,15,15.60
2014,08,15,06,16,15.60
2014,08,15,06,17,15.60
2014,08,15,06,18,15.60
2014,08,15,06,19,15.60
2014,08,15,06,20,15.60
2014,08,15,06,21,15.60
2014,08,15,06,22,15.60
2014,08,15,06,23,15.60
2014,08,15,06,24,15.60
2014,08,15,06,25,15.60
2014,08,15,06,26,15.70
2014,08,15,06,27,15.70
2014,08,15,06,28,15.70
2014,08,15,06,29,15.70
2014,08,15,06,30,15.70
2014,08,15,06,31,15.70
2014,08,15,06,32,15.70
2014,08,15,06,33,15.70
2014,08,15,06,34,15.70
2014,08,15,06,35,15.70
2014,08,15,06,36,15.70
2014,08,15,06,37,15.70
2014,08,15,06,38,15.70
2014,08,15,06,39,15.70
2014,08,15,06,40,15.70
2014,08,15,06,41,15.70
2014,08,15,06,42,15.70
2014,08,15,06,43,15.70
2014,08,15,06,44,15.80
2014,08,15,06,45,15.80
2014,08,15,06,46,15.70
2014,08,15,06,47,15.80
2014,08,15,06,48,15.70
2014,08,15,06,49,15.70
2014,08,15,06,50,15.70
2014,08,15,06,51,15.70
2014,08,15,06,52,15.70
2014,08,15,06,53,15.70
2014,08,15,06,54,15.70
2014,08,15,06,55,15.70
2014,08,15,06,56,15.80
2014,08,15,06,57,15.80
2014,08,15,06,58,15.80
2014,08,15,06,59,15.80
2014,08,15,07,00,15.80
2014,08,15,07,01,15.80
2014,08,15,07,02,15.80
2014,08,15,07,03,15.80
2014,08,15,07,04,15.80
2014,08,15,07,05,15.80
2014,08,15,07,06,15.80
2014,08,15,07,07,15.90
2014,08,15,07,08,15.90
2014,08,15,07,09,15.90
2014,08,15,07,10,15.90
2014,08,15,07,11,15.90
2014,08,15,07,12,15.90
2014,08,15,07,13,15.90
2014,08,15,07,14,16.00
2014,08,15,07,15,16.00
2014,08,15,07,16,16.00
2014,08,15,07,17,16.00
2014,08,15,07,18,16.10
2014,08,15,07,19,16.10
2014,08,15,07,20,16.10
2014,08,15,07,21,16.10
2014,08,15,07,22,16.10
2014,08,15,07,23,16.10
2014,08,15,07,24,16.10
2014,08,15,07,25,16.10
2014,08,15,07,26,16.10
2014,08,15,07,27,16.10
2014,08,15,07,28,16.20
2014,08,15,07,29,16.20
2014,08,15,07,30,16.20
2014,08,15,07,31,16.20
2014,08,15,07,32,16.10
2014,08,15,07,33,16.10
2014,08,15,07,34,15.90
2014,08,15,07,35,15.80
2014,08,15,07,36,15.60
2014,08,15,07,37,15.50
2014,08,15,07,38,15.30
2014,08,15,07,39,15.20
2014,08,15,07,40,15.10
2014,08,15,07,41,15.00
2014,08,15,07,42,14.90
2014,08,15,07,43,14.80
2014,08,15,07,44,14.80
2014,08,15,07,45,14.80
2014,08,15,07,46,14.70
2014,08,15,07,47,14.70
2014,08,15,07,48,14.70
2014,08,15,07,49,14.70
2014,08,15,07,50,14.70
2014,08,15,07,51,14.80
2014,08,15,07,52,14.80
2014,08,15,07,53,14.80
2014,08,15,07,54,14.80
2014,08,15,07,55,14.80
2014,08,15,07,56,14.80
2014,08,15,07,57,14.80
2014,08,15,07,58,14.90
2014,08,15,07,59,14.90
2014,08,15,08,00,14.90
2014,08,15,08,01,14.90
2014,08,15,08,02,14.90
2014,08,15,08,03,14.90
2014,08,15,08,04,14.90
2014,08,15,08,05,14.90
2014,08,15,08,06,14.90
2014,08,15,08,07,14.90
2014,08,15,08,08,14.90
2014,08,15,08,09,14.90
2014,08,15,08,10,15.00
2014,08,15,08,11,15.00
2014,08,15,08,12,15.00
2014,08,15,08,13,15.00
2014,08,15,08,14,15.10
2014,08,15,08,15,15.10
2014,08,15,08,16,15.10
2014,08,15,08,17,15.10
2014,08,15,08,18,15.10
2014,08,15,08,19,15.10
2014,08,15,08,20,15.10
2014,08,15,08,21,15.00
2014,08,15,08,22,15.00
2014,08,15,08,23,15.00
2014,08,15,08,24,14.90
2014,08,15,08,25,14.90
2014,08,15,08,26,14.90
2014,08,15,08,27,14.80
2014,08,15,08,28,14.80
2014,08,15,08,29,14.80
2014,08,15,08,30,14.80
2014,08,15,08,31,14.80
2014,08,15,08,32,14.70
2014,08,15,08,33,14.80
2014,08,15,08,34,14.80
2014,08,15,08,35,14.80
2014,08,15,08,36,14.80
2014,08,15,08,37,14.80
2014,08,15,08,38,14.80
2014,08,15,08,39,14.80
2014,08,15,08,40,14.80
2014,08,15,08,41,14.80
2014,08,15,08,42,14.80
2014,08,15,08,43,14.80
2014,08,15,08,44,14.80
2014,08,15,08,45,14.80
2014,08,15,08,46,14.80
2014,08,15,08,47,14.80
2014,08,15,08,48,14.80
2014,08,15,08,49,14.80
2014,08,15,08,50,14.80
2014,08,15,08,51,14.80
2014,08,15,08,52,14.80
2014,08,15,08,53,14.90
2014,08,15,08,54,14.90
2014,08,15,08,55,14.90
2014,08,15,08,56,14.90
2014,08,15,08,57,14.90
2014,08,15,08,58,14.90
2014,08,15,08,59,15.00
2014,08,15,09,00,15.00
2014,08,15,09,01,15.00
2014,08,15,09,02,15.00
2014,08,15,09,03,15.10
2014,08,15,09,04,15.10
2014,08,15,09,05,15.10
2014,08,15,09,06,15.10
2014,08,15,09,07,15.10
2014,08,15,09,08,15.10
2014,08,15,09,09,15.10
2014,08,15,09,10,15.10
2014,08,15,09,11,15.10
2014,08,15,09,12,15.10
2014,08,15,09,13,15.10
2014,08,15,09,14,15.10
2014,08,15,09,15,15.10
2014,08,15,09,16,15.10
2014,08,15,09,17,15.10
2014,08,15,09,18,15.10
2014,08,15,09,19,15.10
2014,08,15,09,20,15.10
2014,08,15,09,21,15.10
2014,08,15,09,22,15.10
2014,08,15,09,23,15.10
2014,08,15,09,24,15.10
2014,08,15,09,25,15.10
2014,08,15,09,26,15.10
2014,08,15,09,27,15.10
2014,08,15,09,28,15.10
2014,08,15,09,29,15.10
2014,08,15,09,30,15.10
2014,08,15,09,31,15.10
2014,08,15,09,32,15.20
2014,08,15,09,33,15.20
2014,08,15,09,34,15.20
2014,08,15,09,35,15.20
2014,08,15,09,36,15.20
2014,08,15,09,37,15.20
2014,08,15,09,38,15.30
2014,08,15,09,39,15.30
2014,08,15,09,40,15.30
2014,08,15,09,41,15.30
2014,08,15,09,42,15.30
2014,08,15,09,43,15.30
2014,08,15,09,44,15.30
2014,08,15,09,45,15.30
2014,08,15,09,46,15.40
2014,08,15,09,47,15.40
2014,08,15,09,48,15.40
2014,08,15,09,49,15.40
2014,08,15,09,50,15.40
2014,08,15,09,51,15.40
2014,08,15,09,52,15.50
2014,08,15,09,53,15.50
2014,08,15,09,54,15.50
2014,08,15,09,55,15.50
2014,08,15,09,56,15.50
2014,08,15,09,57,15.50
2014,08,15,09,58,15.50
2014,08,15,09,59,15.60
2014,08,15,10,00,15.60
2014,08,15,10,01,15.60
2014,08,15,10,02,15.60
2014,08,15,10,03,15.70
2014,08,15,10,04,15.70
2014,08,15,10,05,15.70
2014,08,15,10,06,15.70
2014,08,15,10,07,15.70
2014,08,15,10,08,15.80
2014,08,15,10,09,15.80
2014,08,15,10,10,15.80
2014,08,15,10,11,15.80
2014,08,15,10,12,15.90
2014,08,15,10,13,15.90
2014,08,15,10,14,15.90
2014,08,15,10,15,15.90
2014,08,15,10,16,15.90
2014,08,15,10,17,15.90
2014,08,15,10,18,15.90
2014,08,15,10,19,16.00
2014,08,15,10,20,16.00
2014,08,15,10,21,16.00
2014,08,15,10,22,16.00
2014,08,15,10,23,16.00
2014,08,15,10,24,16.00
2014,08,15,10,25,16.00
2014,08,15,10,26,16.00
2014,08,15,10,27,16.10
2014,08,15,10,28,16.10
2014,08,15,10,29,16.10
2014,08,15,10,30,16.10
2014,08,15,10,31,16.10
2014,08,15,10,32,16.00
2014,08,15,10,33,15.90
2014,08,15,10,34,15.90
2014,08,15,10,35,15.90
2014,08,15,10,36,15.80
2014,08,15,10,37,15.80
2014,08,15,10,38,15.80
2014,08,15,10,39,15.80
2014,08,15,10,40,15.80
2014,08,15,10,41,15.80
2014,08,15,10,42,15.80
2014,08,15,10,43,15.80
2014,08,15,10,44,15.80
2014,08,15,10,45,15.90
2014,08,15,10,46,15.90
2014,08,15,10,47,16.00
2014,08,15,10,48,16.00
2014,08,15,10,49,16.00
2014,08,15,10,50,16.00
2014,08,15,10,51,16.10
2014,08,15,10,52,16.10
2014,08,15,10,53,16.10
2014,08,15,10,54,16.10
2014,08,15,10,55,16.10
2014,08,15,10,56,16.10
2014,08,15,10,57,16.20
2014,08,15,10,58,16.20
2014,08,15,10,59,16.20
2014,08,15,11,00,16.20
2014,08,15,11,01,16.20
2014,08,15,11,02,16.20
2014,08,15,11,03,16.20
2014,08,15,11,04,16.30
2014,08,15,11,05,16.30
2014,08,15,11,06,16.30
2014,08,15,11,07,16.30
2014,08,15,11,08,16.30
2014,08,15,11,09,16.20
2014,08,15,11,10,16.20
2014,08,15,11,11,16.00
2014,08,15,11,12,15.90
2014,08,15,11,13,15.80
2014,08,15,11,14,15.70
2014,08,15,11,15,15.60
2014,08,15,11,16,15.50
2014,08,15,11,17,15.50
2014,08,15,11,18,15.40
2014,08,15,11,19,15.30
2014,08,15,11,20,15.30
2014,08,15,11,21,15.20
2014,08,15,11,22,15.10
2014,08,15,11,23,15.10
2014,08,15,11,24,15.10
2014,08,15,11,25,15.10
2014,08,15,11,26,15.10
2014,08,15,11,27,15.20
2014,08,15,11,28,15.20
2014,08,15,11,29,15.20
2014,08,15,11,30,15.20
2014,08,15,11,31,15.20
2014,08,15,11,32,15.20
2014,08,15,11,33,15.30
2014,08,15,11,34,15.30
2014,08,15,11,35,15.30
2014,08,15,11,36,15.40
2014,08,15,11,37,15.40
2014,08,15,11,38,15.50
2014,08,15,11,39,15.50
2014,08,15,11,40,15.60
2014,08,15,11,41,15.60
2014,08,15,11,42,15.70
2014,08,15,11,43,15.70
2014,08,15,11,44,15.80
2014,08,15,11,45,15.80
2014,08,15,11,46,15.80
2014,08,15,11,47,15.80
2014,08,15,11,48,15.80
2014,08,15,11,49,15.90
2014,08,15,11,50,15.90
2014,08,15,11,51,15.90
2014,08,15,11,52,15.90
2014,08,15,11,53,15.90
2014,08,15,11,54,15.90
2014,08,15,11,55,15.90
2014,08,15,11,56,15.90
2014,08,15,11,57,15.90
2014,08,15,11,58,16.00
2014,08,15,11,59,16.00
2014,08,15,12,00,16.00
2014,08,15,12,01,16.00
2014,08,15,12,02,16.10
2014,08,15,12,03,16.10
2014,08,15,12,04,16.10
2014,08,15,12,05,16.10
2014,08,15,12,06,16.10
2014,08,15,12,07,16.20
2014,08,15,12,08,16.20
2014,08,15,12,09,16.20
2014,08,15,12,10,16.20
2014,08,15,12,11,16.20
2014,08,15,12,12,16.20
2014,08,15,12,13,16.20
2014,08,15,12,14,16.20
2014,08,15,12,15,16.20
2014,08,15,12,16,16.20
2014,08,15,12,17,16.30
2014,08,15,12,18,16.30
2014,08,15,12,19,16.30
2014,08,15,12,20,16.30
2014,08,15,12,21,16.30
2014,08,15,12,22,16.30
2014,08,15,12,23,16.30
2014,08,15,12,24,16.30
2014,08,15,12,25,16.30
2014,08,15,12,26,16.30
2014,08,15,12,27,16.30
2014,08,15,12,28,16.30
2014,08,15,12,29,16.30
2014,08,15,12,30,16.30
2014,08,15,12,31,16.30
2014,08,15,12,32,16.30
2014,08,15,12,33,16.30
2014,08,15,12,34,16.30
2014,08,15,12,35,16.30
2014,08,15,12,36,16.30
2014,08,15,12,37,16.30
2014,08,15,12,38,16.30
2014,08,15,12,39,16.40
2014,08,15,12,40,16.40
2014,08,15,12,41,16.40
2014,08,15,12,42,16.40
2014,08,15,12,43,16.50
2014,08,15,12,44,16.50
2014,08,15,12,45,16.50
2014,08,15,12,46,16.50
2014,08,15,12,47,16.50
2014,08,15,12,48,16.60
2014,08,15,12,49,16.50
2014,08,15,12,50,16.50
2014,08,15,12,51,16.50
2014,08,15,12,52,16.50
2014,08,15,12,53,16.50
2014,08,15,12,54,16.50
2014,08,15,12,55,16.50
2014,08,15,12,56,16.50
2014,08,15,12,57,16.50
2014,08,15,12,58,16.50
2014,08,15,12,59,16.50
2014,08,15,13,00,16.50
2014,08,15,13,01,16.50
2014,08,15,13,02,16.50
2014,08,15,13,03,16.50
2014,08,15,13,04,16.40
2014,08,15,13,05,16.40
2014,08,15,13,06,16.40
2014,08,15,13,07,16.40
2014,08,15,13,08,16.40
2014,08,15,13,09,16.40
2014,08,15,13,10,16.40
2014,08,15,13,11,16.40
2014,08,15,13,12,16.40
2014,08,15,13,13,16.40
2014,08,15,13,14,16.40
2014,08,15,13,15,16.40
2014,08,15,13,16,16.40
2014,08,15,13,17,16.40
2014,08,15,13,18,16.40
2014,08,15,13,19,16.40
2014,08,15,13,20,16.40
2014,08,15,13,21,16.40
2014,08,15,13,22,16.40
2014,08,15,13,23,16.30
2014,08,15,13,24,16.30
2014,08,15,13,25,16.30
2014,08,15,13,26,16.30
2014,08,15,13,27,16.30
2014,08,15,13,28,16.30
2014,08,15,13,29,16.30
2014,08,15,13,30,16.30
2014,08,15,13,31,16.30
2014,08,15,13,32,16.30
2014,08,15,13,33,16.30
2014,08,15,13,34,16.30
2014,08,15,13,35,16.40
2014,08,15,13,36,16.40
2014,08,15,13,37,16.40
2014,08,15,13,38,16.40
2014,08,15,13,39,16.40
2014,08,15,13,40,16.40
2014,08,15,13,41,16.40
2014,08,15,13,42,16.40
2014,08,15,13,43,16.40
2014,08,15,13,44,16.40
2014,08,15,13,45,16.40
2014,08,15,13,46,16.40
2014,08,15,13,47,16.40
2014,08,15,13,48,16.50
2014,08,15,13,49,16.50
2014,08,15,13,50,16.60
2014,08,15,13,51,16.60
2014,08,15,13,52,16.60
2014,08,15,13,53,16.60
2014,08,15,13,54,16.60
2014,08,15,13,55,16.60
2014,08,15,13,56,16.60
2014,08,15,13,57,16.60
2014,08,15,13,58,16.60
2014,08,15,13,59,16.60
2014,08,15,14,00,16.60
2014,08,15,14,01,16.60
2014,08,15,14,02,16.60
2014,08,15,14,03,16.50
2014,08,15,14,04,16.50
2014,08,15,14,05,16.50
2014,08,15,14,06,16.50
2014,08,15,14,07,16.50
2014,08,15,14,08,16.50
2014,08,15,14,09,16.40
2014,08,15,14,10,16.50
2014,08,15,14,11,16.50
2014,08,15,14,12,16.50
2014,08,15,14,13,16.50
2014,08,15,14,14,16.50
2014,08,15,14,15,16.50
2014,08,15,14,16,16.60
2014,08,15,14,17,16.60
2014,08,15,14,18,16.60
2014,08,15,14,19,16.60
2014,08,15,14,20,16.60
2014,08,15,14,21,16.60
2014,08,15,14,22,16.60
2014,08,15,14,23,16.60
2014,08,15,14,24,16.70
2014,08,15,14,25,16.70
2014,08,15,14,26,16.70
2014,08,15,14,27,16.70
2014,08,15,14,28,16.70
2014,08,15,14,29,16.70
2014,08,15,14,30,16.70
2014,08,15,14,31,16.60
2014,08,15,14,32,16.60
2014,08,15,14,33,16.70
2014,08,15,14,34,16.70
2014,08,15,14,35,16.70
2014,08,15,14,36,16.70
2014,08,15,14,37,16.70
2014,08,15,14,38,16.70
2014,08,15,14,39,16.70
2014,08,15,14,40,16.70
2014,08,15,14,41,16.70
2014,08,15,14,42,16.70
2014,08,15,14,43,16.80
2014,08,15,14,44,16.80
2014,08,15,14,45,16.80
2014,08,15,14,46,16.80
2014,08,15,14,47,16.80
2014,08,15,14,48,16.80
2014,08,15,14,49,16.80
2014,08,15,14,50,16.90
2014,08,15,14,51,16.90
2014,08,15,14,52,16.90
2014,08,15,14,53,17.00
2014,08,15,14,54,17.00
2014,08,15,14,55,17.10
2014,08,15,14,56,17.10
2014,08,15,14,57,17.10
2014,08,15,14,58,17.10
2014,08,15,14,59,17.10
2014,08,15,15,00,17.10
2014,08,15,15,01,17.10
2014,08,15,15,02,17.10
2014,08,15,15,03,17.10
2014,08,15,15,04,17.10
2014,08,15,15,05,17.10
2014,08,15,15,06,17.20
2014,08,15,15,07,17.20
2014,08,15,15,08,17.20
2014,08,15,15,09,17.20
2014,08,15,15,10,17.20
2014,08,15,15,11,17.20
2014,08,15,15,12,17.20
2014,08,15,15,13,17.20
2014,08,15,15,14,17.30
2014,08,15,15,15,17.30
2014,08,15,15,16,17.30
2014,08,15,15,17,17.30
2014,08,15,15,18,17.30
2014,08,15,15,19,17.40
2014,08,15,15,20,17.40
2014,08,15,15,21,17.40
2014,08,15,15,22,17.40
2014,08,15,15,23,17.40
2014,08,15,15,24,17.40
2014,08,15,15,25,17.40
2014,08,15,15,26,17.50
2014,08,15,15,27,17.50
2014,08,15,15,28,17.50
2014,08,15,15,29,17.60
2014,08,15,15,30,17.60
2014,08,15,15,31,17.60
2014,08,15,15,32,17.60
2014,08,15,15,33,17.60
2014,08,15,15,34,17.60
2014,08,15,15,35,17.70
2014,08,15,15,36,17.70
2014,08,15,15,37,17.70
2014,08,15,15,38,17.70
2014,08,15,15,39,17.70
2014,08,15,15,40,17.70
2014,08,15,15,41,17.70
2014,08,15,15,42,17.70
2014,08,15,15,43,17.70
2014,08,15,15,44,17.80
2014,08,15,15,45,17.80
2014,08,15,15,46,17.80
2014,08,15,15,47,17.80
2014,08,15,15,48,17.80
2014,08,15,15,49,17.80
2014,08,15,15,50,17.80
2014,08,15,15,51,17.80
2014,08,15,15,52,17.80
2014,08,15,15,53,17.70
2014,08,15,15,54,17.70
2014,08,15,15,55,17.70
2014,08,15,15,56,17.60
2014,08,15,15,57,17.60
2014,08,15,15,58,17.60
2014,08,15,15,59,17.60
2014,08,15,16,00,17.50
2014,08,15,16,01,17.50
2014,08,15,16,02,17.50
2014,08,15,16,03,17.50
2014,08,15,16,04,17.60
2014,08,15,16,05,17.60
2014,08,15,16,06,17.60
2014,08,15,16,07,17.60
2014,08,15,16,08,17.60
2014,08,15,16,09,17.60
2014,08,15,16,10,17.70
2014,08,15,16,11,17.70
2014,08,15,16,12,17.70
2014,08,15,16,13,17.70
2014,08,15,16,14,17.70
2014,08,15,16,15,17.70
2014,08,15,16,16,17.70
2014,08,15,16,17,17.70
2014,08,15,16,18,17.70
2014,08,15,16,19,17.70
2014,08,15,16,20,17.80
2014,08,15,16,21,17.80
2014,08,15,16,22,17.80
2014,08,15,16,23,17.80
2014,08,15,16,24,17.80
2014,08,15,16,25,17.80
2014,08,15,16,26,17.80
2014,08,15,16,27,17.80
2014,08,15,16,28,17.80
2014,08,15,16,29,17.80
2014,08,15,16,30,17.80
2014,08,15,16,31,17.80
2014,08,15,16,32,17.80
2014,08,15,16,33,17.80
2014,08,15,16,34,17.80
2014,08,15,16,35,17.80
2014,08,15,16,36,17.80
2014,08,15,16,37,17.90
2014,08,15,16,38,17.90
2014,08,15,16,39,17.90
2014,08,15,16,40,17.90
2014,08,15,16,41,17.90
2014,08,15,16,42,17.90
2014,08,15,16,43,17.90
2014,08,15,16,44,17.90
2014,08,15,16,45,17.90
2014,08,15,16,46,17.90
2014,08,15,16,47,17.90
2014,08,15,16,48,17.90
2014,08,15,16,49,17.90
2014,08,15,16,50,17.90
2014,08,15,16,51,17.90
2014,08,15,16,52,17.90
2014,08,15,16,53,17.90
2014,08,15,16,54,17.90
2014,08,15,16,55,17.90
2014,08,15,16,56,17.90
2014,08,15,16,57,17.90
2014,08,15,16,58,17.90
2014,08,15,16,59,17.90
2014,08,15,17,00,17.90
2014,08,15,17,01,17.90
2014,08,15,17,02,17.90
2014,08,15,17,03,17.90
2014,08,15,17,04,17.90
2014,08,15,17,05,17.90
2014,08,15,17,06,17.90
2014,08,15,17,07,17.90
2014,08,15,17,08,17.90
2014,08,15,17,09,17.90
2014,08,15,17,10,17.90
2014,08,15,17,11,17.90
2014,08,15,17,12,17.90
2014,08,15,17,13,17.90
2014,08,15,17,14,17.90
2014,08,15,17,15,17.90
2014,08,15,17,16,17.90
2014,08,15,17,17,17.90
2014,08,15,17,18,17.90
2014,08,15,17,19,17.90